Regional Weather Roundup
Issued by NWS

Home | Current Version | Previous Version | Text Only | Print | Product List | Glossary On
Versions: 1 2 3 4 5 6 7 8 9 10 11 12 13 14 15 16 17 18 19 20 21 22 23 24 25 26 27 28 29 30 31 32 33 34 35 36 37 38 39 40 41 42 43 44 45 46 47 48 49 50
267
ASUS43 KBIS 250710
RWRND

NORTH DAKOTA REGIONAL WEATHER ROUNDUP
NATIONAL WEATHER SERVICE BISMARCK ND
200 AM CDT SAT MAR 25 2017

NOTE: "FAIR" INDICATES FEW OR NO CLOUDS BELOW 12,000 FEET WITH NO
SIGNIFICANT WEATHER AND/OR OBSTRUCTIONS TO VISIBILITY.


NDZ001>003-009>011-017-250800-
NORTHWEST NORTH DAKOTA

CITY           SKY/WX    TMP DP  RH WIND       PRES   REMARKS
WILLISTON      FAIR      43  33  68 SE10G18   29.92F
MINOT          CLOUDY    31  29  92 SE13      30.06F
MINOT AFB      CLOUDY    32  28  86 SE20      30.06F
$$

NDZ018>021-031>035-040>046-250800-
SOUTHWEST NORTH DAKOTA

CITY           SKY/WX    TMP DP  RH WIND       PRES   REMARKS
BISMARCK       FAIR      30  27  88 E9        30.13F
DICKINSON      FLURRIES  38  31  76 SE20G28   29.96F
GARRISON         N/A     29  28  96 SE10      30.07S WCI  20
HETTINGER ARPT CLEAR     38  31  76 SE16      30.01F
$$

NDZ004>008-012>016-024-026-027-054-250800-
NORTHEAST NORTH DAKOTA

CITY           SKY/WX    TMP DP  RH WIND       PRES   REMARKS
GRAND FORKS    PTCLDY    29  28  96 CALM      30.21F
GRND FRKS AFB  CLEAR     26  26  99 NW5       30.21F
DEVILS LAKE    CLOUDY    30  27  88 SE12      30.18F
$$

NDZ022-023-025-028>030-036>039-047>053-250800-
SOUTHEAST NORTH DAKOTA

CITY           SKY/WX    TMP DP  RH WIND       PRES   REMARKS
FARGO          CLEAR     27  25  92 CALM      30.21F
JAMESTOWN      CLOUDY    29  27  92 SE7       30.18F
$$





USA.gov is the U.S. government's official web portal to all federal, state and local government web resources and services.